2023/01/28 00:00:00,61.4,-5.8
2023/01/28 00:10:00,61.4,-6.0
2023/01/28 00:20:00,61.3,-5.8
2023/01/28 00:30:00,61.2,-5.7
2023/01/28 00:40:00,61.0,-6.7
2023/01/28 00:50:00,60.9,-6.7
2023/01/28 01:00:00,60.7,-6.9
2023/01/28 01:10:00,60.5,-5.8
2023/01/28 01:20:00,60.5,-6.0
2023/01/28 01:30:00,60.5,-6.9
2023/01/28 01:40:00,60.4,-6.4
2023/01/28 01:50:00,60.3,-6.7
2023/01/28 02:00:00,60.2,-7.8
2023/01/28 02:10:00,60.1,-8.3
2023/01/28 02:20:00,59.9,-8.0
2023/01/28 02:30:00,59.8,-7.5
2023/01/28 02:40:00,59.7,-6.7
2023/01/28 02:50:00,59.5,-7.9
2023/01/28 03:00:00,59.5,-8.4
2023/01/28 03:10:00,59.4,-7.8
2023/01/28 03:20:00,59.4,-7.9
2023/01/28 03:30:00,59.4,-7.8
2023/01/28 03:40:00,59.5,-7.1
2023/01/28 03:50:00,59.5,-6.7
2023/01/28 04:00:00,59.8,-6.7
2023/01/28 04:10:00,60.0,-6.6
2023/01/28 04:20:00,60.3,-6.4
2023/01/28 04:30:00,60.6,-6.4
2023/01/28 04:40:00,60.9,-5.8
2023/01/28 04:50:00,61.4,-6.0
2023/01/28 05:00:00,62.2,-5.6
2023/01/28 05:10:00,63.3,-5.5
2023/01/28 05:20:00,64.1,-5.5
2023/01/28 05:30:00,64.4,-4.8
2023/01/28 05:40:00,65.5,-4.8
2023/01/28 05:50:00,67.2,-4.9
2023/01/28 06:00:00,68.2,-4.8
2023/01/28 06:10:00,68.5,-4.8
2023/01/28 06:20:00,69.2,-4.8
2023/01/28 06:30:00,69.4,-4.7
2023/01/28 06:40:00,70.1,-4.6
2023/01/28 06:50:00,71.5,-4.7
2023/01/28 07:00:00,71.9,-4.6
2023/01/28 07:10:00,72.0,-4.8
2023/01/28 07:20:00,71.7,-4.5
2023/01/28 07:30:00,71.6,-4.3
2023/01/28 07:40:00,71.5,-4.7
2023/01/28 07:50:00,71.4,-4.4
2023/01/28 08:00:00,71.6,-4.1
2023/01/28 08:10:00,71.6,-4.0
2023/01/28 08:20:00,71.9,-4.1
2023/01/28 08:30:00,72.0,-3.9
2023/01/28 08:40:00,71.8,-3.2
2023/01/28 08:50:00,71.8,-3.1
2023/01/28 09:00:00,71.6,-3.2
2023/01/28 09:10:00,71.5,-2.8
2023/01/28 09:20:00,71.3,-3.1
2023/01/28 09:30:00,71.3,-3.2
2023/01/28 09:40:00,71.5,-3.0
2023/01/28 09:50:00,71.5,-2.1
2023/01/28 10:00:00,71.3,-2.6
2023/01/28 10:10:00,71.3,-2.8
2023/01/28 10:20:00,71.7,-2.8
2023/01/28 10:30:00,72.8,-2.1
2023/01/28 10:40:00,73.0,-1.7
2023/01/28 10:50:00,73.2,-1.5
2023/01/28 11:00:00,73.5,-2.4
2023/01/28 11:10:00,74.0,-2.6
2023/01/28 11:20:00,75.2,-1.8
2023/01/28 11:30:00,75.8,-1.2
2023/01/28 11:40:00,75.7,-1.9
2023/01/28 11:50:00,75.5,-1.7
2023/01/28 12:00:00,75.3,-1.5
2023/01/28 12:10:00,75.0,-2.3
2023/01/28 12:20:00,75.0,-2.3
2023/01/28 12:30:00,74.9,-2.3
2023/01/28 12:40:00,74.8,-1.7
2023/01/28 12:50:00,74.6,-2.0
2023/01/28 13:00:00,74.6,-2.5
2023/01/28 13:10:00,74.3,-1.5
2023/01/28 13:20:00,74.4,-1.4
2023/01/28 13:30:00,74.3,-1.5
2023/01/28 13:40:00,74.1,-1.4
2023/01/28 13:50:00,74.0,-1.8
2023/01/28 14:00:00,74.0,-2.0
2023/01/28 14:10:00,73.9,-2.7
2023/01/28 14:20:00,74.0,-2.6
2023/01/28 14:30:00,74.0,-2.6
2023/01/28 14:40:00,73.9,-2.7
2023/01/28 14:50:00,73.8,-2.1
2023/01/28 15:00:00,73.8,-3.2
2023/01/28 15:10:00,73.7,-1.9
2023/01/28 15:20:00,73.6,-1.7
2023/01/28 15:30:00,73.3,-2.8
2023/01/28 15:40:00,73.3,-2.6
2023/01/28 15:50:00,73.3,-3.3
2023/01/28 16:00:00,74.0,-3.7
2023/01/28 16:10:00,74.9,-4.1
2023/01/28 16:20:00,75.4,-3.9
2023/01/28 16:30:00,76.1,-4.3
2023/01/28 16:40:00,76.7,-4.8
2023/01/28 16:50:00,76.8,-4.9
2023/01/28 17:00:00,76.8,-4.9
2023/01/28 17:10:00,77.0,-5.2
2023/01/28 17:20:00,77.4,-5.4
2023/01/28 17:30:00,78.1,-5.7
2023/01/28 17:40:00,79.4,-5.8
2023/01/28 17:50:00,79.5,-5.8
2023/01/28 18:00:00,79.2,-5.9
2023/01/28 18:10:00,79.2,-5.9
2023/01/28 18:20:00,79.6,-5.9
2023/01/28 18:30:00,80.5,-6.0
2023/01/28 18:40:00,80.6,-6.0
2023/01/28 18:50:00,80.7,-6.2
2023/01/28 19:00:00,80.8,-6.1
2023/01/28 19:10:00,81.1,-6.2
2023/01/28 19:20:00,81.6,-6.0
2023/01/28 19:30:00,81.5,-6.1
2023/01/28 19:40:00,81.3,-6.1
2023/01/28 19:50:00,81.0,-6.7
2023/01/28 20:00:00,81.0,-6.1
2023/01/28 20:10:00,81.4,-6.1
2023/01/28 20:20:00,81.4,-6.0
2023/01/28 20:30:00,81.1,-6.2
2023/01/28 20:40:00,81.4,-5.9
2023/01/28 20:50:00,81.7,-5.9
2023/01/28 21:00:00,81.6,-5.8
2023/01/28 21:10:00,81.6,-6.0
2023/01/28 21:20:00,81.7,-5.9
2023/01/28 21:30:00,81.7,-5.6
2023/01/28 21:40:00,81.6,-6.0
2023/01/28 21:50:00,81.6,-6.1
2023/01/28 22:00:00,81.5,-5.9
2023/01/28 22:10:00,81.2,-6.1
2023/01/28 22:20:00,81.0,-6.0
2023/01/28 22:30:00,80.8,-6.3
2023/01/28 22:40:00,80.6,-6.8
2023/01/28 22:50:00,80.4,-6.1
2023/01/28 23:00:00,80.8,-6.1
2023/01/28 23:10:00,80.8,-6.2
2023/01/28 23:20:00,80.8,-7.1
2023/01/28 23:30:00,80.8,-5.7
2023/01/28 23:40:00,80.9,-5.8
2023/01/28 23:50:00,80.8,-5.7
